+07,Max TemperatureF,Mean TemperatureF,Min TemperatureF,Max Dew PointF,MeanDew PointF,Min DewpointF,Max Humidity, Mean Humidity, Min Humidity, Max Sea Level PressureIn, Mean Sea Level PressureIn, Min Sea Level PressureIn, Max VisibilityMiles, Mean VisibilityMiles, Min VisibilityMiles, Max Wind SpeedMPH, Mean Wind SpeedMPH, Max Gust SpeedMPH,PrecipitationIn, CloudCover, Events, WindDirDegrees
2012-11-1,91,79,69,73,69,64,93,65,43,30.01,29.91,29.80,7,6,2,37,3,,0.00,1,,160
2012-11-2,91,80,70,72,70,66,91,68,46,29.98,29.88,29.77,7,6,5,6,2,,0.00,2,,207
2012-11-3,90,79,68,74,69,66,92,70,46,29.95,29.86,29.77,7,6,4,7,2,,0.00,1,,169
2012-11-4,90,81,72,73,69,64,89,66,43,29.95,29.86,29.77,7,6,4,5,1,,0.00,3,Rain,146
2012-11-5,92,81,70,74,70,68,91,66,47,29.92,29.84,29.77,7,6,2,6,2,,0.00,1,,100
2012-11-6,91,81,71,73,69,64,95,65,38,29.98,29.87,29.80,7,5,1,6,2,,0.00,2,,137
2012-11-7,91,80,68,73,69,68,94,67,46,29.95,29.86,29.76,7,5,0,7,2,,0.00,1,Fog,149
2012-11-8,91,80,69,72,69,68,93,68,46,29.92,29.82,29.73,7,5,0,7,2,,0.00,2,Fog,264
2012-11-9,91,80,70,74,70,66,94,67,43,29.92,29.84,29.77,7,5,1,4,2,,0.00,3,,-1
2012-11-10,91,81,69,72,69,64,94,65,38,29.98,29.87,29.80,7,5,1,6,1,,0.00,1,,205
2012-11-11,91,79,67,71,68,66,97,66,46,29.98,29.87,29.77,7,5,0,7,2,,0.00,1,Fog,148
2012-11-12,91,80,70,73,70,66,94,66,43,29.98,29.88,29.80,7,5,1,4,1,,0.00,2,Thunderstorm,-1
2012-11-13,88,78,68,73,69,66,95,71,49,30.01,29.92,29.80,7,5,2,5,1,,T,4,,91
2012-11-14,90,80,71,73,70,66,92,67,46,29.92,29.84,29.77,7,6,3,5,2,,0.00,4,,140
2012-11-15,89,80,72,75,71,68,92,68,52,29.95,29.85,29.80,7,6,4,5,2,,0.00,5,,109
2012-11-16,89,80,72,74,71,68,90,68,49,29.98,29.90,29.83,7,6,3,6,2,,0.03,5,,147
2012-11-17,90,80,70,75,71,70,95,71,55,29.98,29.89,29.80,7,5,0,5,2,,0.00,4,Fog,329
2012-11-18,90,80,70,76,71,68,94,69,49,29.95,29.87,29.80,7,5,2,6,2,,0.00,2,,20
2012-11-19,88,80,72,74,71,70,90,72,52,29.95,29.88,29.80,7,5,2,7,2,,0.00,4,Rain-Thunderstorm,189
2012-11-20,88,80,72,74,71,68,91,70,52,29.98,29.90,29.80,7,6,3,5,1,,0.00,4,,-1
2012-11-21,88,79,70,74,71,68,96,72,55,29.98,29.88,29.80,7,5,2,5,1,,1.73,4,,175
2012-11-22,90,82,74,73,70,68,89,64,46,29.92,29.83,29.74,7,6,4,6,2,,0.00,2,,130
2012-11-23,88,80,70,74,70,68,96,70,49,29.95,29.85,29.77,7,5,2,6,1,,0.00,3,,140
2012-11-24,89,78,66,74,69,64,93,68,49,29.95,29.85,29.74,7,6,2,6,1,,0.00,1,,151
2012-11-25,88,80,72,73,71,70,93,70,52,29.95,29.86,29.80,7,6,2,6,2,,0.00,2,,60
2012-11-26,89,80,71,73,70,68,91,68,49,29.98,29.87,29.77,7,6,4,5,2,,T,2,,191
2012-11-27,88,79,70,74,70,68,95,75,52,29.95,29.85,29.74,7,5,0,6,2,,0.00,4,Fog,174
2012-11-28,86,78,71,73,70,68,96,76,58,29.95,29.84,29.77,7,4,0,6,1,,0.00,4,Fog,167
2012-11-29,86,78,70,73,70,68,91,73,55,29.92,29.83,29.77,7,5,2,5,2,,0.00,5,,170
2012-11-30,83,78,72,75,72,72,94,82,70,29.89,29.83,29.77,7,6,3,4,1,,0.00,4,Rain,82